SEYTG ESSB-ESSA

Flight info

Callsign SEYTG
Flight time 0h 10m
Altitude 17000
Route TEB DCT BALVI
Aircraft HDJT/L-SABDGRWY/H

Departure

Time 2026-05-07 18:03
Airport Stockholm-Bromma Airport (ESSB)

Arrival

Time 2026-05-07 18:13
Airport Stockholm-Arlanda Airport (ESSA)
Time Latitude Longitude Altitude Speed Heading
2026-05-07 17:56 59.35923 17.93668 32 ft 0 kts 224°
2026-05-07 18:01 59.35922 17.93667 32 ft 0 kts 208°
2026-05-07 18:01 59.35899 17.93677 31 ft 17 kts 136°
2026-05-07 18:01 59.35772 17.93859 29 ft 14 kts 173°
2026-05-07 18:01 59.35795 17.93683 27 ft 25 kts 309°
2026-05-07 18:02 59.35926 17.93335 32 ft 18 kts 304°
2026-05-07 18:02 59.35989 17.93071 32 ft 26 kts 260°
2026-05-07 18:02 59.35856 17.92934 25 ft 39 kts 120°
2026-05-07 18:03 59.35529 17.93921 73 ft 113 kts 125°
2026-05-07 18:03 59.35106 17.95195 435 ft 108 kts 116°
2026-05-07 18:03 59.35229 17.96728 660 ft 130 kts 51°
2026-05-07 18:03 59.36088 17.97236 1152 ft 138 kts 353°
2026-05-07 18:04 59.37050 17.97174 1722 ft 133 kts 14°
2026-05-07 18:04 59.37835 17.97843 2378 ft 123 kts 37°
2026-05-07 18:04 59.38538 17.98809 2939 ft 120 kts 36°
2026-05-07 18:04 59.39200 17.99742 3497 ft 114 kts 36°
2026-05-07 18:05 59.39835 18.00564 4041 ft 103 kts 14°
2026-05-07 18:05 59.40467 18.00418 4571 ft 87 kts 342°
2026-05-07 18:05 59.41195 17.99592 4692 ft 127 kts 328°
2026-05-07 18:05 59.42271 17.98298 4790 ft 171 kts 329°
2026-05-07 18:06 59.43464 17.96866 4873 ft 221 kts 329°
2026-05-07 18:06 59.44907 17.95126 4978 ft 263 kts 329°
2026-05-07 18:06 59.46687 17.92982 5023 ft 301 kts 329°
2026-05-07 18:06 59.48554 17.90732 5013 ft 328 kts 329°
2026-05-07 18:07 59.50532 17.88342 5012 ft 347 kts 329°
2026-05-07 18:07 59.52634 17.85799 5016 ft 361 kts 329°
2026-05-07 18:07 59.54804 17.83174 5007 ft 371 kts 328°
2026-05-07 18:07 59.57018 17.80485 4999 ft 378 kts 328°
2026-05-07 18:08 59.59502 17.77466 5008 ft 383 kts 328°
2026-05-07 18:08 59.61784 17.74692 5002 ft 386 kts 328°
2026-05-07 18:08 59.64078 17.71895 5003 ft 389 kts 328°
2026-05-07 18:08 59.66384 17.69078 4998 ft 390 kts 328°
2026-05-07 18:09 59.68694 17.66257 4995 ft 390 kts 328°
2026-05-07 18:09 59.71152 17.64086 4997 ft 382 kts 345°
2026-05-07 18:09 59.73651 17.63706 4994 ft 346 kts
2026-05-07 18:09 59.75915 17.65144 4995 ft 351 kts 28°
2026-05-07 18:10 59.77787 17.68197 5002 ft 333 kts 50°
2026-05-07 18:10 59.78820 17.71982 4763 ft 300 kts 72°
2026-05-07 18:10 59.79129 17.76038 3910 ft 293 kts 88°
2026-05-07 18:10 59.79163 17.80010 3619 ft 295 kts 88°
2026-05-07 18:11 59.79156 17.84214 3230 ft 317 kts 94°
2026-05-07 18:11 59.78916 17.87129 2947 ft 327 kts 107°
2026-05-07 18:11 59.77441 17.92087 2379 ft 319 kts 135°
2026-05-07 18:11 59.75615 17.94436 1949 ft 311 kts 159°
2026-05-07 18:12 59.73500 17.95050 1536 ft 308 kts 182°
2026-05-07 18:12 59.71357 17.94172 1048 ft 322 kts 194°
2026-05-07 18:12 59.69382 17.93295 741 ft 239 kts 187°
2026-05-07 18:12 59.68063 17.92865 475 ft 158 kts 186°
2026-05-07 18:13 59.67121 17.92543 242 ft 120 kts 185°
2026-05-07 18:13 59.66418 17.92298 116 ft 86 kts 189°
2026-05-07 18:13 59.65889 17.92106 109 ft 71 kts 190°
2026-05-07 18:13 59.65602 17.92063 102 ft 30 kts 156°
2026-05-07 18:14 59.65429 17.92200 98 ft 23 kts 159°
2026-05-07 18:14 59.65358 17.92254 99 ft 8 kts 159°
2026-05-07 18:14 59.65292 17.92384 104 ft 18 kts 131°
2026-05-07 18:14 59.65175 17.92375 106 ft 25 kts 191°
2026-05-07 18:15 59.64956 17.92294 106 ft 36 kts 190°
2026-05-07 18:15 59.64717 17.92207 106 ft 33 kts 191°
2026-05-07 18:15 59.64506 17.92132 107 ft 29 kts 190°
2026-05-07 18:15 59.64318 17.92063 109 ft 27 kts 190°
2026-05-07 18:16 59.64146 17.92011 109 ft 23 kts 177°
2026-05-07 18:16 59.64002 17.91976 109 ft 19 kts 190°
2026-05-07 18:16 59.63881 17.91931 107 ft 17 kts 192°
2026-05-07 18:16 59.63790 17.91941 101 ft 4 kts 156°
2026-05-07 18:17 59.63785 17.91946 101 ft 0 kts 157°